Regional Weather Roundup
Issued by NWS

Home | Current Version | Previous Version | Graphics & Text | Print | Product List | Glossary On
Versions: 1 2 3 4 5 6 7 8 9 10 11 12 13 14 15 16 17 18 19 20 21 22 23 24 25 26 27 28 29 30 31 32 33 34 35 36 37 38 39 40 41 42 43 44 45 46 47 48 49 50
000
ASUS43 KMKX 201411
RWRWI

WISCONSIN REGIONAL WEATHER ROUNDUP
NATIONAL WEATHER SERVICE MILWAUKEE/SULLIVAN WI
900 AM CDT SUN APR 20 2014

NOTE: "FAIR" INDICATES FEW OR NO CLOUDS BELOW 12,000 FEET WITH NO
SIGNIFICANT WEATHER AND/OR OBSTRUCTIONS TO VISIBILITY.

WIZ001-002-006>008-014>016-023>028-201500-
NORTHWEST WISCONSIN

CITY           SKY/WX    TMP DP  RH WIND       PRES   REMARKS
SUPERIOR ARPT  SUNNY     38  34  84 CALM      30.06S
ASHLAND        SUNNY     46  43  89 SW5       30.06R
HAYWARD        FOG       47  45  93 S3        30.05S VSB 3/4
SIREN          SUNNY     44  43  99 CALM      30.05F
RICE LAKE      CLOUDY    49  48  96 CALM      30.07S FOG
LADYSMITH      CLOUDY    55  48  80 CALM      30.07S
EAU CLAIRE     CLOUDY    58  51  78 SW7       30.05S
MENOMONIE      CLOUDY    51  50  95 CALM      30.06R FOG
NEW RICHMOND   SUNNY     52  52 100 NE5       30.05F FOG
OSCEOLA        FOG       49  49 100 CALM      30.07F VSB 1/4
$$

WIZ003>005-009-010-017-018-201500-
NORTH CENTRAL WISCONSIN

CITY           SKY/WX    TMP DP  RH WIND       PRES   REMARKS
WOODRUFF       PTSUNNY   52  42  70 S7        30.06F
RHINELANDER    CLOUDY    48  40  73 SW7       30.08S
EAGLE RIVER    CLOUDY    45  41  85 CALM      30.07S
LAND O LAKES   PTSUNNY   52  40  63 SW7       30.07F
PHILLIPS       SUNNY     54  46  73 S5        30.06S
TOMAHAWK       CLOUDY    47  42  81 CALM      30.07F
MEDFORD        CLOUDY    52  46  78 S10       30.07S
MERRILL        LGT RAIN  49  46  90 CALM      30.09S
$$

WIZ029-030-035-036-043>047-201500-
CENTRAL WISCONSIN

CITY           SKY/WX    TMP DP  RH WIND       PRES   REMARKS
WAUSAU         LGT RAIN  51  43  74 S10       30.07S
MOSINEE        LGT RAIN  48  45  87 S10       30.11R
MARSHFIELD     LGT RAIN  52  48  86 S8        30.08F
STEVENS POINT  RAIN      49  43  79 S6        30.12S
WAUPACA        CLOUDY    55  43  62 CALM      30.13R
WAUTOMA        CLOUDY    55  40  57 S6        30.12F
WISC RAPIDS    RAIN      51  48  89 S5        30.12S FOG
CAMP DOUGLAS   CLOUDY    59  43  55 SW3       30.11R
$$

WIZ011>013-019>022-031-037>040-048>050-201500-
NORTHEAST WISCONSIN

CITY           SKY/WX    TMP DP  RH WIND       PRES   REMARKS
ANTIGO         LGT RAIN  46  44  93 CALM      30.10S
STURGEON BAY   CLOUDY    39  34  81 S13       30.17S WCI  32
GREEN BAY      CLOUDY    49  43  80 S10       30.13F
MANITOWOC      CLOUDY    42  34  73 S10       30.18F
APPLETON       CLOUDY    48  43  81 SE8       30.16R
CLINTONVILLE   CLOUDY    50  43  76 S5        30.12F
OSHKOSH        CLOUDY    51  40  65 S12       30.13F
$$

WIZ032>034-041-042-053>061-201500-
SOUTHWEST WISCONSIN

CITY           SKY/WX    TMP DP  RH WIND       PRES   REMARKS
LA CROSSE      CLOUDY    53  51  93 CALM      30.08F
SPARTA         RAIN      58  41  53 CALM      30.10F
VIROQUA        CLOUDY    56  43  62 SW3       30.11R
BOSCOBEL       PTSUNNY   64  40  41 S9        30.11S
PRAIRIE DU CHI CLOUDY    61  40  46 S6        30.10S
PLATTEVILLE    FAIR      59  39  46 S15       30.13F
$$

WIZ056-057-062-063-064-067-068-201500-
SOUTH CENTRAL WISCONSIN

CITY           SKY/WX    TMP DP  RH WIND       PRES   REMARKS
BARABOO/DELLS  CLOUDY    57  38  48 S12       30.11F
LONE ROCK      CLOUDY    59  40  49 S5        30.12S
WATERTOWN      CLOUDY    55  40  58 S10       30.16S
MADISON        PTSUNNY   57  40  52 S12       30.14F
MIDDLETON      CLOUDY    58  38  47 S5        30.14S
MONROE         CLOUDY    56  39  53 S14       30.14F
JANESVILLE     PTSUNNY   57  36  44 S12G17    30.17S
$$

WIZ051-052-058>065-066-070>072-201500-
SOUTHEAST WISCONSIN

CITY           SKY/WX    TMP DP  RH WIND       PRES   REMARKS
MILWAUKEE      CLOUDY    54  34  46 S10       30.20F
WAUKESHA       SUNNY     54  36  50 S7        30.20S
MILWAUKEE/TIMM CLOUDY    54  34  47 S7        30.19F
RACINE         PTSUNNY   51  37  58 S8        30.21F
BURLINGTON     PTSUNNY   56  36  47 SW10      30.19S
KENOSHA        CLOUDY    56  34  43 S10       30.20F
FOND DU LAC    CLOUDY    54  39  57 S12       30.14F
SHEBOYGAN      CLOUDY    45  35  68 S7        30.17F
WEST BEND      LGT RAIN  52  36  54 S7        30.16F
JUNEAU         CLOUDY    52  35  52 S12       30.16F
$$

LSZ147-162-201500-
LAKE SUPERIOR

STATION/POSITION TIME  TEMP    WIND        PRES    WAVE
                       AIR SEA DIR/SP/G            HT/PER
                 (UTC) (F)     (DEG/KT/KT) (MB)    (FT/S)
DEVILS ISLAND    1400   34     230/  8/ 10 1018.6R
PORT WING        1300   33     300/  3/  3 1018.3
SAXON HARBOR     1300             CALM     1017.6S
$$

LMZ867-665-643>646-201500-
LAKE MICHIGAN

STATION/POSITION TIME  TEMP    WIND        PRES    WAVE
                       AIR SEA DIR/SP/G            HT/PER
                 (UTC) (F)     (DEG/KT/KT) (MB)    (FT/S)
NORTHPORT PIER   1300   39     160/ 10/ 17 1021.3S
SISTER BAY       1309   37     200/ 22/ 31   N/A
KEWAUNEE LAKESHO 1300   38     180/ 15/ 17 1022.9R
SHEBOYGAN LAKESH 1400   40     180/ 17/ 19 1022.3F
PORT WASHINGTON  1300   42     180/  7/ 10 1023.0F
MILWAUKEE LAKESH 1300   42     150/  9/ 10   N/A
KENOSHA   LAKESH 1400   43     170/ 10/ 11   N/A
$$

TC  - TEMPERATURE IN CELSIUS
VSB - VISIBILITY IN STATUTE MILES
WCI - WIND CHILL INDEX
HX  - HEAT INDEX




USA.gov is the U.S. government's official web portal to all federal, state and local government web resources and services.